Millerton Lake Weather Center

Moon Phase Calendar



Millerton Lake Water Level
Online Cameras

 


      

Current Conditions in Auberry
3/5/2024 5:39:57 AM

41°F
Feels Like 39
Clouds
Humidity
91%
Pressure
30.12"
Wind
4.2 mph (ENE)
Dew Point
39°F
UV Index
0/10 (Low)
Visibility
6 mi

Hourly Forecast

Date & Time Tue, Mar 5
5:00 AM
Tue, Mar 5
6:00 AM
Tue, Mar 5
7:00 AM
Tue, Mar 5
8:00 AM
Tue, Mar 5
9:00 AM
Tue, Mar 5
10:00 AM
Tue, Mar 5
11:00 AM
Tue, Mar 5
12:00 PM
Tue, Mar 5
1:00 PM
Tue, Mar 5
2:00 PM
Tue, Mar 5
3:00 PM
Tue, Mar 5
4:00 PM
Tue, Mar 5
5:00 PM
Tue, Mar 5
6:00 PM
Tue, Mar 5
7:00 PM
Tue, Mar 5
8:00 PM
Tue, Mar 5
9:00 PM
Tue, Mar 5
10:00 PM
Tue, Mar 5
11:00 PM
Wed, Mar 6
12:00 AM
Wed, Mar 6
1:00 AM
Wed, Mar 6
2:00 AM
Wed, Mar 6
3:00 AM
Wed, Mar 6
4:00 AM
Wed, Mar 6
5:00 AM
Wed, Mar 6
6:00 AM
Wed, Mar 6
7:00 AM
Wed, Mar 6
8:00 AM
Wed, Mar 6
9:00 AM
Wed, Mar 6
10:00 AM
Wed, Mar 6
11:00 AM
Wed, Mar 6
12:00 PM
Wed, Mar 6
1:00 PM
Wed, Mar 6
2:00 PM
Wed, Mar 6
3:00 PM
Wed, Mar 6
4:00 PM
Wed, Mar 6
5:00 PM
Wed, Mar 6
6:00 PM
Wed, Mar 6
7:00 PM
Wed, Mar 6
8:00 PM
Wed, Mar 6
9:00 PM
Wed, Mar 6
10:00 PM
Wed, Mar 6
11:00 PM
Thu, Mar 7
12:00 AM
Thu, Mar 7
1:00 AM
Thu, Mar 7
2:00 AM
Thu, Mar 7
3:00 AM
Thu, Mar 7
4:00 AM
Condition
Clouds

Clouds

Clouds

Clouds

Clouds

Clouds

Clouds

Clouds

Clouds

Clouds

Clouds

Clouds

Clouds

Clouds

Clouds

Clouds

Clouds

Clouds

Clouds

Clouds

Clouds

Clouds

Clouds

Clouds

Clouds

Clouds

Clouds

Clouds

Clouds

Clouds

Clouds

Clouds

Clouds

Clouds

Clouds

Clouds

Clouds

Clouds

Clouds

Clouds

Clouds

Clouds

Clouds

Clouds

Clouds

Clouds

Clouds

Clouds
Temperature 42°F41°F42°F44°F48°F52°F56°F58°F60°F60°F60°F59°F58°F53°F51°F49°F49°F48°F47°F48°F48°F47°F46°F45°F45°F45°F46°F51°F55°F58°F59°F60°F61°F62°F62°F61°F58°F53°F51°F50°F49°F48°F48°F47°F46°F45°F45°F45°F
Feels Like 39°F39°F39°F44°F48°F50°F54°F56°F58°F58°F58°F58°F56°F51°F49°F47°F46°F46°F45°F46°F45°F45°F43°F43°F43°F42°F44°F49°F53°F56°F58°F58°F59°F60°F60°F59°F56°F52°F50°F50°F49°F48°F48°F47°F46°F45°F45°F45°F
Cloudiness 31%37%41%50%60%71%100%100%100%100%100%99%85%91%91%70%60%52%26%42%49%62%64%60%96%88%91%93%95%94%100%100%100%100%100%97%97%98%99%99%89%86%81%87%82%81%77%69%
Visibility 6 mi6 mi6 mi6 mi6 mi6 mi6 mi6 mi6 mi6 mi6 mi6 mi6 mi6 mi6 mi6 mi6 mi6 mi6 mi6 mi6 mi6 mi6 mi6 mi6 mi6 mi6 mi6 mi6 mi6 mi6 mi6 mi6 mi6 mi6 mi6 mi6 mi6 mi6 mi6 mi6 mi6 mi6 mi6 mi6 mi6 mi6 mi6 mi
Precipitation 0%0%0%0%0%0%0%0%0%0%0%0%1%0%0%0%0%0%0%0%0%0%0%0%0%0%0%0%0%0%0%0%1%3%9%14%36%28%18%10%3%3%1%3%3%3%3%3%
Humidity 88%91%87%81%74%65%56%53%50%49%50%52%63%67%71%76%76%77%77%73%70%68%68%67%66%65%65%60%55%53%53%53%53%51%50%52%67%76%82%86%88%90%90%91%92%93%93%93%
Dew Point 39°F39°F38°F39°F40°F41°F40°F40°F40°F40°F40°F40°F44°F40°F40°F40°F40°F40°F39°F38°F37°F36°F35°F34°F33°F33°F34°F36°F38°F40°F41°F42°F42°F42°F41°F42°F45°F44°F45°F44°F44°F44°F44°F43°F43°F42°F42°F41°F
Pressure 30.12"30.12"30.12"30.12"30.12"30.09"30.09"30.06"30.03"30"30"29.97"29.97"29.97"29.97"30"30"30"30"29.97"29.97"29.94"29.94"29.91"29.91"29.91"29.94"29.94"29.91"29.91"29.88"29.88"29.83"29.8"29.8"29.8"29.8"29.83"29.83"29.83"29.85"29.85"29.85"29.85"29.88"29.88"29.88"29.88"
Wind Speed 4.5 mph4.2 mph4.2 mph2.4 mph1.9 mph3.3 mph3.2 mph3.6 mph3.1 mph2.6 mph2.2 mph2.6 mph2.3 mph2.2 mph4.5 mph5 mph5.7 mph5.3 mph5 mph5.3 mph5.1 mph5.1 mph5.2 mph4.8 mph4.5 mph4.8 mph4.5 mph3.2 mph2.1 mph3.1 mph4.9 mph4.7 mph2.7 mph3.4 mph4.2 mph3.6 mph4.6 mph4 mph2.8 mph2.3 mph2.5 mph2.2 mph1.7 mph1.3 mph1.4 mph2.1 mph2 mph1.9 mph
Wind
Direction
58°
ENE
62°
ENE
70°
ENE
86°
E
154°
SSE
194°
SSW
194°
SSW
203°
SSW
216°
SW
230°
SW
246°
WSW
271°
W
291°
WNW
27°
NNE
39°
NE
50°
NE
46°
NE
48°
NE
53°
NE
51°
NE
53°
NE
53°
NE
56°
NE
52°
NE
56°
NE
59°
ENE
64°
ENE
71°
ENE
94°
E
168°
SSE
185°
S
188°
S
189°
S
215°
SW
228°
SW
267°
W
270°
W
269°
W
286°
WNW
354°
N

N

N
10°
N
358°
N
332°
NNW
348°
NNW
348°
NNW
315°
NW

Daily Forecast

Date High Low Precip. Humidity
Today
Mar 5

Clouds
60 °F
41 °F
1%
53%
Wednesday
Mar 6

Clouds
62 °F
45 °F
36%
53%
Thursday
Mar 7

Clouds
57 °F
44 °F
36%
64%
Friday
Mar 8

Clear
62 °F
42 °F
0%
55%
Saturday
Mar 9

Clouds
63 °F
48 °F
8%
53%
Sunday
Mar 10

Clouds
61 °F
45 °F
0%
59%
Monday
Mar 11

Clouds
63 °F
46 °F
0%
55%
Tuesday
Mar 12

Clouds
64 °F
52 °F
0%
62%
Wednesday
Mar 13

Clouds
64 °F
48 °F
0%
66%
Thursday
Mar 14

Clouds
71 °F
50 °F
0%
54%
Friday
Mar 15

Clouds
75 °F
55 °F
0%
44%
Saturday
Mar 16

Clouds
79 °F
59 °F
0%
39%
Sunday
Mar 17

Clouds
82 °F
61 °F
0%
34%
Monday
Mar 18

Clouds
79 °F
59 °F
0%
41%
Tuesday
Mar 19

Clouds
67 °F
52 °F
0%
54%
Wednesday
Mar 20

Clouds
69 °F
50 °F
0%
54%

Temperature 8-14 Day Outlook



Precipitation 8-14 Day Outlook




Quick Links
Millerton Lake News
Millerton Lake Photos
Millerton Lake Videos




About Us
Contact Us
Site Map
Search Site
Advertise With Us
   
Millerton.USLakes.info
THE MILLERTON LAKE WEBSITE

Copyright 2024, Lakes Online
Privacy    |    Legal